Theta_e
278 278 277 276 276 277 278 277 276 277 278 279 280 280 281 283 282 281 282 283 282 280 281 281 281 281 282 286 288 289 290 291 291 291 291 291 292 292 292 292 293 293 293 293 293 293 293 293 294 294 294 294 294 294 295 295 295 295 296 296 297 297 297 297 297 297 297 297 297 297 297 297 297 297 297 297 297 297 298 298 298 299 299 299 299 299
278 278 278 276 276 277 278 277 277 277 278 279 280 281 281 280 280 281 281 282 281 281 281 281 281 280 278 283 286 289 290 290 290 290 291 291 291 292 292 292 292 292 293 293 293 293 293 293 293 294 294 294 294 294 294 294 295 295 295 296 296 296 296 296 296 296 296 296 296 296 296 296 296 296 296 296 297 297 298 298 298 298 298 299 299 299
277 278 278 277 276 277 278 277 277 277 277 278 279 280 279 279 279 281 281 282 282 282 281 281 281 280 279 282 285 288 289 289 290 290 290 291 291 291 292 292 292 292 292 292 292 293 293 293 293 293 293 294 294 294 294 294 294 295 295 295 295 295 295 295 295 295 295 295 295 295 295 295 295 295 295 296 296 297 297 297 298 298 298 298 298 299
276 277 278 278 278 277 277 278 278 278 279 279 280 279 278 278 279 281 281 281 281 281 280 279 279 280 280 281 284 287 288 289 289 290 290 290 290 291 291 291 291 292 292 292 292 292 293 293 293 293 293 293 294 294 294 294 294 294 294 294 294 294 294 294 294 294 294 294 294 294 294 294 295 295 295 295 296 296 297 297 297 297 297 297 298 298
277 278 278 279 278 278 278 278 278 279 280 280 279 279 278 279 280 281 281 281 280 280 280 279 279 279 280 280 282 285 288 288 289 289 289 290 290 290 291 291 291 291 291 292 292 292 292 293 293 293 293 293 293 294 294 294 294 294 294 294 294 294 294 293 293 293 293 293 293 294 294 294 294 294 295 295 295 296 296 296 296 296 297 297 297 298
277 278 279 279 279 279 279 279 280 281 280 280 280 279 279 280 280 281 281 280 280 280 280 280 279 279 279 280 282 285 287 288 288 288 289 289 289 290 290 290 291 291 291 291 292 292 292 292 293 293 293 293 293 293 293 293 293 293 293 293 293 293 293 293 293 293 293 293 293 293 293 293 294 294 294 294 294 295 295 295 296 296 296 297 297 297
277 278 279 279 279 280 280 280 281 281 280 281 281 280 280 280 280 279 279 279 279 279 279 279 279 278 278 279 282 285 285 286 287 287 288 288 289 289 289 290 290 290 291 291 292 292 292 292 292 292 292 292 293 293 293 292 292 292 292 292 292 292 292 292 292 292 292 292 293 293 293 293 293 293 293 293 294 294 294 295 295 296 296 296 297 297
278 279 279 279 280 281 281 281 282 282 281 281 280 280 280 280 279 278 277 276 276 277 278 279 278 278 277 278 280 282 283 283 284 284 286 286 287 288 289 289 290 290 291 291 291 292 292 292 292 292 292 292 292 292 292 292 292 291 291 291 291 292 292 292 292 292 292 292 292 292 292 292 293 293 293 293 293 293 294 294 295 295 296 296 297 297
278 279 280 280 280 281 281 282 282 281 281 280 279 279 279 278 278 278 277 276 276 276 277 278 278 278 278 278 278 280 282 283 283 283 284 284 285 286 288 289 290 290 290 291 291 291 291 291 291 291 291 291 291 291 291 291 291 291 291 291 291 291 291 291 291 291 291 292 292 292 292 292 292 292 293 293 293 293 294 294 295 295 296 296 297 297
279 280 281 281 282 281 281 281 281 281 279 279 279 279 278 277 277 277 277 277 277 277 277 277 278 278 278 278 278 279 282 283 284 285 286 286 286 287 288 288 288 289 290 290 290 291 291 290 290 290 290 290 290 290 290 290 290 290 290 290 290 290 290 290 290 291 291 291 291 292 292 292 292 292 293 293 293 293 294 294 294 295 296 296 297 297
280 281 281 281 282 282 281 281 281 280 279 278 278 278 277 276 276 276 276 276 277 278 278 277 277 278 278 279 279 280 281 282 283 284 286 286 287 288 288 288 288 288 289 289 289 289 289 289 289 289 289 289 289 289 289 289 289 289 289 289 289 289 290 290 290 290 291 291 291 292 292 292 292 293 293 293 293 293 294 294 294 294 295 296 296 297
281 281 282 281 281 281 281 281 281 281 280 279 278 277 276 276 275 275 276 276 276 277 277 278 278 278 278 279 280 280 281 281 281 281 282 283 284 285 284 284 285 286 287 287 287 288 288 288 288 288 288 288 288 288 288 288 288 288 289 289 289 289 289 290 290 290 291 291 291 292 292 292 292 293 293 293 293 293 294 294 294 294 295 295 295 296
281 281 281 280 280 280 280 281 281 281 280 279 277 276 276 276 276 276 276 276 276 277 277 278 278 278 279 279 280 280 280 280 281 281 281 281 280 280 279 280 281 282 282 283 283 284 286 287 287 287 287 287 287 288 288 287 288 288 288 288 289 289 289 290 290 290 291 291 291 292 292 292 292 292 293 293 293 293 293 293 294 294 294 295 295 295
281 281 280 280 280 280 280 280 280 280 278 277 276 276 277 277 277 276 276 276 277 277 278 278 278 279 280 280 281 281 281 281 281 282 282 281 280 279 278 279 280 280 281 281 281 281 284 285 284 284 286 286 286 286 286 287 287 288 288 288 289 289 290 290 290 290 291 291 291 291 292 292 292 292 292 293 293 293 293 293 294 294 294 294 294 295
281 280 280 279 279 280 281 280 280 279 277 277 276 276 277 277 277 276 276 276 277 277 278 278 279 279 280 281 282 282 282 282 281 281 281 280 279 279 279 279 280 280 280 280 280 281 283 283 282 282 282 283 284 284 285 286 287 288 288 289 289 289 290 290 290 290 291 291 291 291 292 292 292 292 292 293 293 293 293 293 293 293 294 294 294 294
280 280 280 279 280 280 281 280 279 278 277 277 277 277 277 277 276 276 276 277 277 278 278 278 278 278 279 281 281 282 282 281 281 280 280 280 280 279 279 279 279 279 280 280 280 280 281 281 281 281 281 282 284 285 286 287 287 288 288 289 289 289 290 290 290 290 291 291 291 291 291 291 292 292 292 292 293 293 293 293 293 293 293 294 294 294
281 281 280 280 280 280 280 280 279 278 277 278 278 278 277 277 277 277 277 277 278 278 278 277 277 277 277 279 281 281 281 281 280 280 279 279 280 280 279 279 279 279 279 279 279 280 280 280 280 280 281 283 285 286 287 287 288 288 289 289 289 289 290 290 290 290 290 291 291 291 291 291 292 292 292 292 292 292 293 293 293 293 293 293 294 294
281 281 281 280 280 280 280 279 279 279 279 279 278 278 278 277 278 278 278 278 278 277 277 277 277 277 277 278 279 280 280 280 280 279 279 279 279 279 279 279 278 278 278 279 279 279 280 279 280 280 281 284 286 286 287 287 288 288 288 289 289 289 290 290 290 290 291 291 291 291 291 291 291 291 292 292 292 292 292 292 293 293 293 293 293 293
281 281 281 280 280 279 279 279 279 280 279 279 279 278 279 278 278 279 279 279 278 278 278 278 278 278 278 278 279 280 281 281 280 279 278 278 278 279 279 279 279 278 278 278 279 279 279 279 281 283 284 286 286 286 287 287 288 288 288 289 289 289 289 290 290 290 290 291 291 291 291 291 291 291 291 292 292 292 292 292 292 292 293 293 293 293
281 281 280 280 280 279 279 280 280 281 281 281 280 279 278 279 279 279 279 279 279 279 279 278 278 278 279 279 280 280 281 281 279 278 277 277 278 278 278 278 278 277 277 278 278 279 279 279 280 281 284 285 286 286 287 287 288 288 288 289 289 289 289 290 290 290 290 290 291 291 291 291 291 291 291 291 291 292 292 292 292 292 292 293 293 293
281 281 281 281 280 280 280 281 281 282 282 281 280 279 279 279 279 279 279 279 279 279 279 279 279 279 279 279 279 280 281 280 279 277 277 277 277 277 277 277 277 277 277 277 278 279 279 279 279 280 282 284 286 286 287 287 288 288 288 289 289 289 289 289 290 290 290 290 290 290 291 291 291 291 291 291 291 291 291 291 292 292 292 292 293 293
281 281 281 282 282 282 282 282 282 283 282 281 280 279 280 279 279 279 279 279 279 279 279 279 279 279 279 279 280 280 280 280 278 277 276 276 276 276 277 277 276 276 276 277 278 279 279 279 279 280 283 285 286 286 287 287 288 288 288 289 289 289 289 289 289 289 290 290 290 290 290 290 290 290 291 291 291 291 291 291 292 292 292 292 292 292
282 282 283 283 283 283 283 281 281 281 282 281 281 281 281 280 280 280 280 280 280 279 279 279 279 280 280 280 280 280 279 278 278 277 276 275 275 275 277 277 277 277 276 277 278 279 279 279 279 280 283 285 286 286 287 287 287 288 288 288 288 289 289 289 289 289 289 289 290 290 290 290 290 290 290 291 290 291 291 291 291 291 291 291 292 292
283 283 283 283 283 282 282 282 282 282 283 283 283 283 283 283 283 283 282 281 280 280 279 279 279 279 279 279 279 278 278 277 276 276 276 275 275 276 277 277 277 277 277 278 278 278 279 279 280 280 282 284 285 286 286 287 287 288 288 288 288 288 288 288 289 289 289 289 289 289 290 290 290 290 290 290 290 290 290 290 291 291 291 291 291 291
283 283 283 283 283 284 284 285 285 286 286 285 284 284 284 284 283 282 281 280 280 279 279 278 277 277 277 278 277 277 276 276 275 275 276 275 275 276 277 277 277 277 277 278 278 279 279 279 280 280 281 282 284 286 286 287 287 287 287 288 288 288 288 288 288 289 289 289 289 289 289 289 289 289 290 290 290 290 290 290 290 290 290 291 291 291
285 285 285 285 286 287 287 287 287 287 287 285 284 283 282 282 281 280 279 279 279 278 277 276 275 275 276 276 276 275 276 275 275 275 276 276 275 275 276 277 276 276 277 278 278 279 279 279 280 280 280 281 283 285 286 286 286 287 287 287 287 288 288 288 288 288 288 288 289 289 289 289 289 289 289 289 289 290 290 290 290 290 290 290 290 290
286 287 287 287 287 286 286 286 286 286 286 286 285 284 283 281 280 278 277 278 277 277 276 275 274 274 275 275 275 275 276 277 276 276 277 276 275 275 276 276 276 277 277 277 278 279 280 280 280 280 280 280 281 283 285 285 286 286 287 287 287 287 287 287 288 288 288 288 288 288 288 288 289 289 289 289 289 289 290 290 290 290 290 289 289 289
285 285 285 285 285 285 285 285 285 285 285 285 285 285 283 281 279 277 276 277 277 276 275 274 274 273 273 274 275 276 277 277 277 276 276 276 275 275 275 276 277 277 277 277 278 279 280 280 279 279 279 279 280 281 283 284 285 286 286 286 286 287 287 287 287 287 287 287 287 288 288 288 288 289 289 289 289 289 289 289 289 289 289 288 287 287
283 283 283 283 283 283 283 282 282 283 283 284 284 284 283 280 278 277 277 277 277 276 275 274 274 274 274 274 275 275 276 276 276 276 276 276 275 275 276 277 277 277 277 277 277 278 278 278 278 278 278 279 280 280 281 282 283 284 284 285 285 286 286 286 286 286 287 287 287 287 288 288 288 288 288 288 289 289 289 289 289 288 288 287 286 286
278 279 279 279 279 279 279 278 279 280 282 283 283 283 282 280 278 277 277 277 276 275 274 274 274 274 274 274 274 274 274 275 275 275 275 275 275 275 276 276 277 277 277 276 275 275 275 276 277 277 277 279 279 279 279 280 281 281 282 283 284 284 285 285 286 286 286 287 287 287 287 287 288 288 288 288 288 288 288 288 288 287 286 285 285 285
274 274 274 274 274 274 275 275 276 278 279 280 281 281 280 279 278 278 278 277 277 276 275 275 275 275 275 274 273 273 273 274 276 277 277 276 275 275 276 276 276 277 277 276 274 273 273 275 276 277 278 278 279 279 279 280 280 280 280 280 281 282 284 285 285 285 286 286 286 287 287 287 287 287 287 287 288 288 288 288 288 287 285 285 284 284
272 273 272 272 272 273 274 275 275 275 276 277 277 278 279 279 279 279 279 278 278 277 276 276 275 276 275 275 274 273 274 275 277 279 279 277 276 276 277 276 276 276 277 277 275 274 273 274 275 277 277 278 278 279 279 280 280 280 280 280 280 281 283 284 284 284 285 285 286 286 286 286 286 287 287 287 287 287 287 287 287 287 285 284 283 283
273 273 273 273 273 273 274 274 274 274 275 276 276 277 278 279 280 280 279 279 279 278 277 276 276 275 275 275 275 274 275 276 278 280 280 278 277 276 277 276 276 276 277 277 276 275 274 274 275 276 277 278 278 279 279 280 280 280 280 279 279 280 281 282 282 282 283 283 284 284 285 285 286 286 286 286 286 287 287 287 287 286 285 284 283 283
273 273 273 273 273 273 273 273 273 275 276 277 278 278 279 279 279 280 280 279 279 279 278 277 276 275 275 275 275 275 275 276 279 281 281 278 277 276 276 276 276 276 276 276 276 276 275 275 275 275 276 277 278 279 279 279 280 280 279 279 279 279 280 280 281 281 281 281 281 282 283 283 284 285 285 285 286 286 286 287 287 287 287 285 284 284
272 272 273 272 272 272 273 273 274 276 277 278 278 279 279 279 279 279 279 279 279 279 279 278 277 277 276 275 275 275 275 277 279 281 281 279 278 277 276 276 276 276 275 275 275 275 274 275 275 276 275 276 277 277 278 279 279 279 279 279 279 279 279 279 280 280 280 280 280 280 280 280 281 282 283 284 285 285 286 286 287 287 287 287 286 285
271 272 272 273 273 274 275 276 276 277 277 277 278 278 278 278 279 279 279 279 279 279 279 279 279 278 278 277 276 275 276 277 279 280 281 280 278 277 276 276 276 276 275 275 275 274 274 274 275 276 276 275 275 276 277 278 279 279 279 279 279 279 279 280 280 280 280 279 279 279 279 280 280 281 282 284 285 285 286 286 287 287 287 287 287 287
271 272 273 274 275 276 276 276 277 277 277 277 277 278 278 278 278 278 279 279 279 279 279 280 280 280 280 279 278 278 278 278 279 280 280 279 278 277 276 276 277 277 276 275 275 275 274 274 274 275 275 275 275 275 277 278 278 278 278 279 279 279 279 280 280 280 279 280 280 280 280 280 281 281 282 284 285 285 286 286 286 287 287 287 287 287
272 274 275 275 276 276 276 276 276 276 277 277 277 278 278 278 278 278 279 279 279 279 279 279 279 279 280 280 280 279 279 279 279 279 279 279 279 278 277 276 277 277 277 276 276 275 274 274 273 273 273 274 275 276 277 277 277 277 277 278 279 279 279 280 280 280 280 280 280 281 281 281 281 281 282 282 282 282 282 283 284 285 286 286 286 287
274 274 275 276 276 276 276 276 276 277 277 277 278 278 278 279 279 279 279 279 278 278 278 278 278 278 278 278 279 280 280 280 279 279 279 279 279 278 278 277 277 277 277 277 277 276 275 274 274 273 273 274 275 276 276 277 277 277 277 278 279 279 279 280 280 280 281 280 281 281 281 281 281 281 281 281 280 280 280 280 281 282 283 283 284 285
274 275 275 276 276 276 276 276 277 277 277 278 278 279 279 279 279 278 278 278 278 278 278 278 278 278 279 279 280 280 280 280 280 280 279 279 279 278 278 277 277 277 277 277 277 276 276 275 275 275 275 274 275 275 276 276 277 277 278 277 277 278 279 279 280 280 280 280 280 280 280 280 280 280 280 281 280 280 280 280 280 281 282 282 281 281
275 275 275 276 276 277 277 277 277 278 278 278 278 278 278 278 278 277 277 277 278 278 278 278 278 278 279 279 279 279 279 279 280 280 279 279 279 278 278 278 278 277 277 277 277 277 276 275 275 275 275 275 275 275 276 276 277 278 278 277 277 277 279 280 280 280 280 280 280 280 280 281 281 281 281 281 281 281 281 280 281 281 282 282 281 281
275 275 275 275 276 276 277 277 278 278 278 278 277 277 277 277 277 277 276 276 276 277 277 277 277 277 277 277 278 278 279 279 279 279 279 278 278 278 278 278 278 278 277 277 276 276 277 276 276 275 275 275 275 275 275 276 277 278 278 277 278 278 279 280 280 280 280 280 280 280 281 281 280 280 281 281 281 281 282 282 282 282 283 282 282 282
275 275 275 276 276 277 277 277 278 278 278 277 276 276 277 277 277 277 277 276 276 277 277 277 277 276 276 276 277 277 277 277 278 278 278 278 277 277 277 278 278 278 277 277 276 276 276 277 276 276 276 276 276 275 275 276 276 277 278 278 278 277 277 277 278 279 280 280 280 280 280 280 280 281 281 281 281 281 282 282 283 284 284 283 282 282
275 275 276 276 277 277 277 277 277 276 276 276 276 276 277 277 277 277 277 276 276 277 277 277 277 276 275 275 276 276 277 277 277 276 278 279 279 279 278 278 278 279 278 277 276 276 276 276 277 277 277 277 277 276 276 276 276 277 277 278 278 278 276 277 278 279 279 280 280 280 280 280 280 281 281 281 281 281 281 281 281 282 283 283 282 282
275 276 276 276 277 276 276 276 276 276 276 276 276 276 276 277 277 277 277 276 276 276 276 276 276 275 275 275 275 276 276 277 277 277 277 279 281 281 281 280 279 279 279 278 278 277 276 276 276 277 278 278 277 276 276 276 276 277 278 279 279 279 278 279 279 279 279 279 279 280 280 280 280 280 280 280 280 280 281 281 281 281 281 282 282 282
275 276 276 276 276 275 275 276 276 276 276 276 276 276 276 277 277 277 277 276 276 276 276 276 276 275 274 274 275 275 275 276 276 277 277 278 278 279 280 280 280 280 279 279 279 278 278 277 277 277 277 277 277 277 277 277 277 277 277 278 278 278 279 279 279 279 279 279 279 279 280 280 280 279 279 279 280 280 281 281 281 281 281 282 282 282
275 275 275 275 275 275 275 275 275 275 275 275 276 276 276 277 276 277 276 277 276 276 276 276 275 275 274 274 275 275 275 275 275 276 277 277 278 278 279 280 280 281 280 280 280 280 279 279 279 278 277 277 276 276 277 277 277 277 277 278 278 278 278 278 279 279 279 279 280 280 280 280 279 279 279 279 279 280 281 281 282 282 282 282 282 283
275 275 275 274 274 274 274 275 275 275 275 275 275 276 276 277 277 277 276 276 276 276 276 275 275 274 274 274 275 275 275 275 275 276 276 277 278 278 279 280 280 281 281 281 281 281 281 281 280 280 279 277 276 276 276 277 277 277 278 278 278 278 278 278 279 279 280 280 280 280 280 280 279 279 279 279 279 280 280 281 282 282 283 283 283 283
275 274 274 274 274 274 274 274 274 274 274 274 275 275 276 277 277 277 276 276 276 276 275 275 274 274 274 274 275 275 276 276 276 276 276 277 278 278 279 279 279 280 280 280 280 281 281 281 281 281 281 279 278 277 277 277 278 278 278 278 278 278 278 278 279 280 280 280 280 280 280 280 280 280 280 279 279 279 280 281 281 282 283 284 284 284
274 274 274 274 274 274 274 274 274 274 274 274 275 275 275 276 276 276 276 276 276 275 275 275 274 274 274 274 274 275 275 276 276 276 276 277 278 278 278 278 278 278 278 278 278 279 279 279 280 281 283 283 281 279 278 278 278 278 279 279 279 279 279 279 279 280 281 281 281 281 281 281 281 281 280 280 279 279 280 280 281 282 283 283 284 284
274 274 274 274 274 274 274 274 274 274 274 275 275 275 275 275 275 276 276 275 275 275 275 275 274 274 274 274 275 275 276 276 276 276 276 277 278 278 278 278 278 277 277 276 276 276 277 276 277 278 281 283 284 283 280 279 279 279 278 279 279 280 280 280 280 281 281 281 281 281 281 281 281 281 281 280 279 279 279 280 280 281 283 283 283 283
Wind_Speed
1 1 1 0 1 2 3 3 3 3 4 4 4 4 5 6 6 6 7 7 7 6 6 6 7 7 9 13 15 18 19 20 21 21 22 22 21 21 21 21 21 21 21 21 21 21 21 21 21 21 21 20 20 20 20 20 21 21 21 21 21 21 22 22 22 22 23 23 23 24 24 24 24 24 24 24 24 24 24 24 24 24 24 24 24 24
1 1 1 0 1 2 3 3 3 3 4 5 5 5 5 5 5 5 5 6 6 6 6 6 7 7 7 9 13 17 19 20 21 21 22 22 21 21 21 21 21 21 21 21 21 21 21 21 21 21 20 20 21 21 21 21 21 21 21 21 22 22 22 22 22 23 23 23 24 24 24 24 24 23 23 23 24 24 24 24 24 24 24 24 24 24
1 1 1 1 1 2 3 3 3 3 4 5 5 6 5 5 5 5 5 5 5 6 6 6 6 6 6 8 12 16 18 20 21 21 21 22 22 22 22 22 22 22 22 22 21 21 21 21 21 21 21 21 21 21 21 21 21 22 22 22 22 22 22 23 23 23 23 24 24 24 24 23 23 23 23 23 23 23 24 24 24 24 24 24 24 24
1 1 2 1 2 2 3 3 3 3 4 5 5 5 5 5 5 5 5 5 5 5 5 5 5 5 5 6 9 13 17 19 21 21 22 22 22 22 22 22 22 22 22 21 21 21 21 21 21 21 21 21 21 21 21 22 22 22 22 22 23 23 23 23 23 23 24 24 23 23 23 23 23 22 22 23 23 23 23 23 23 24 24 24 24 24
1 2 2 1 2 2 3 3 3 4 4 4 5 5 4 4 4 5 5 5 5 5 5 5 5 5 5 5 8 12 17 19 21 22 22 22 22 22 23 22 22 22 22 21 21 21 21 21 21 21 21 21 21 22 22 22 22 23 23 23 23 23 24 24 24 23 23 23 23 23 23 22 22 22 22 22 22 23 23 23 23 23 23 24 24 24
2 2 2 2 2 2 2 3 3 3 3 4 4 4 4 4 4 4 5 5 5 5 4 4 4 5 5 6 9 13 17 19 21 21 22 22 22 22 22 22 22 22 21 21 21 21 21 21 21 21 21 22 22 22 23 23 23 24 24 24 24 24 24 24 23 23 23 23 22 22 22 22 22 22 22 22 22 22 23 23 23 23 24 24 24 24
2 2 2 2 2 2 2 3 3 3 3 4 4 4 4 4 4 4 4 4 4 4 4 4 4 4 5 6 9 12 14 17 18 19 20 21 21 21 21 21 21 21 21 21 21 21 21 21 21 22 22 22 23 23 24 24 24 24 24 24 24 24 23 23 23 23 22 22 22 22 22 22 22 22 22 22 22 23 23 23 23 23 24 24 24 25
3 2 2 2 3 3 3 3 3 3 3 4 4 4 4 4 4 4 3 3 3 3 3 4 4 4 4 5 7 9 10 11 12 13 15 16 17 18 19 20 20 21 21 21 21 21 21 21 22 22 23 23 24 24 25 25 25 25 24 24 24 23 23 23 22 22 22 22 22 22 22 22 22 22 22 22 23 23 23 23 23 24 24 24 25 25
4 4 3 3 3 4 4 4 3 3 3 4 4 4 5 4 4 3 3 3 2 2 3 4 5 5 5 4 5 6 8 9 9 9 10 10 11 13 15 17 18 19 20 20 21 21 21 22 22 23 24 24 25 25 25 25 25 24 24 23 23 23 22 22 22 22 22 22 22 22 22 22 22 22 23 23 23 23 23 24 24 24 24 25 25 25
4 4 4 3 3 3 4 4 4 3 3 3 4 4 4 4 4 4 4 4 3 3 3 4 5 6 5 5 4 5 8 9 11 13 14 13 14 15 16 16 16 17 19 20 20 21 22 23 23 24 25 25 25 25 25 25 24 24 23 23 23 22 22 22 22 22 22 22 22 22 23 23 23 23 23 23 23 23 24 24 24 24 24 25 25 25
4 4 4 3 3 2 3 4 4 3 3 3 3 2 2 2 3 4 6 6 6 5 4 4 4 5 6 5 5 5 6 7 8 10 13 14 16 17 17 16 16 16 18 19 20 21 22 23 24 24 25 25 25 25 25 24 24 23 23 23 23 23 22 22 22 23 23 23 23 23 23 23 23 23 23 24 24 24 24 24 24 24 25 25 25 25
3 3 3 3 3 3 3 4 4 3 3 3 3 2 2 2 2 3 6 7 7 7 6 5 4 4 5 5 5 6 6 6 6 6 7 8 9 10 10 10 10 12 13 15 17 19 21 22 23 23 23 24 24 24 24 23 23 23 23 23 23 23 23 23 23 23 23 23 23 23 24 24 24 24 24 24 24 24 24 24 24 24 25 25 25 25
3 3 2 3 3 3 4 4 4 3 3 3 3 4 4 3 3 3 4 6 6 7 6 6 5 4 4 5 5 5 5 5 5 5 4 4 4 3 3 4 5 6 7 9 10 12 16 19 20 21 21 22 22 23 23 23 23 23 23 23 23 23 23 23 23 23 24 24 24 24 24 24 24 24 24 24 24 24 24 24 24 24 25 25 25 25
3 3 3 3 4 4 4 4 4 4 3 3 3 3 4 4 3 4 4 5 6 6 6 7 6 5 4 5 4 4 5 5 5 5 4 3 3 2 3 4 5 5 6 7 7 9 12 14 14 15 18 19 21 22 21 22 23 24 24 24 24 24 24 24 24 24 24 24 24 24 24 24 24 24 24 24 24 24 24 24 24 24 25 25 25 25
3 4 5 5 5 5 4 4 4 4 3 3 3 3 4 4 4 4 4 6 6 6 6 7 7 6 4 4 4 4 4 4 4 5 5 4 3 3 4 5 5 6 6 7 8 9 11 10 10 10 12 15 17 19 20 22 23 24 24 24 25 25 25 25 25 25 25 25 24 24 24 24 24 24 24 24 24 24 24 24 24 25 25 25 25 25
3 4 5 6 5 4 3 3 4 4 4 4 3 3 4 4 4 4 5 7 7 6 6 7 7 7 5 4 3 3 3 4 4 5 7 6 5 4 5 5 6 6 6 7 8 8 8 8 8 9 10 14 18 21 24 24 24 25 25 25 25 25 25 25 25 25 25 25 25 25 25 25 25 25 25 25 25 25 25 25 25 25 25 25 25 25
3 3 4 5 5 4 4 3 4 4 4 4 4 4 4 4 5 5 5 6 6 5 5 5 6 6 5 4 3 2 2 3 5 6 8 8 7 5 4 5 6 7 7 8 8 7 7 7 7 8 10 15 19 23 24 25 25 26 26 26 26 26 26 25 25 25 25 25 25 25 25 25 25 25 25 25 25 25 25 25 25 25 25 25 25 25
3 3 4 4 4 4 5 4 4 4 4 4 4 4 4 4 5 5 6 6 6 5 5 5 5 5 5 5 4 3 3 5 6 8 9 9 7 5 4 5 6 7 7 8 8 7 7 7 7 9 11 18 22 24 25 26 26 26 26 26 26 26 26 26 26 26 26 26 26 26 25 25 25 25 25 25 25 25 25 25 25 25 25 25 25 25
4 3 4 4 4 5 5 5 4 4 4 4 4 4 5 5 5 6 7 6 6 6 6 5 5 5 5 6 5 4 4 5 7 8 9 9 8 6 4 5 6 6 7 8 8 8 7 7 9 13 17 21 23 25 26 26 26 27 27 27 26 26 26 26 26 26 26 26 26 26 26 26 26 25 25 25 25 25 25 25 25 25 25 25 25 25
5 4 4 4 5 5 5 5 4 4 4 4 5 6 7 7 7 7 6 5 5 5 5 5 6 6 5 7 7 6 6 6 7 8 9 9 8 7 4 5 6 7 8 7 7 6 7 7 9 12 17 20 22 24 26 26 26 27 27 27 27 27 27 27 27 27 27 27 26 26 26 26 26 26 26 25 25 25 25 25 25 25 25 26 26 26
6 5 4 4 4 4 4 4 4 4 5 6 6 6 8 8 7 6 5 4 4 4 4 5 5 6 6 7 8 8 7 7 7 7 6 7 7 6 4 4 5 6 8 8 7 7 7 7 7 9 13 18 21 24 25 26 26 27 27 27 27 27 27 27 27 27 27 27 27 27 26 26 26 26 26 26 26 26 25 26 26 26 26 26 26 26
5 5 5 4 4 4 5 5 5 6 7 7 7 7 7 7 6 5 5 4 4 5 5 6 6 7 7 9 9 8 6 5 5 6 5 7 7 7 4 4 4 6 7 7 6 6 6 7 7 9 12 18 22 24 25 26 26 27 27 27 27 27 27 27 27 27 27 27 27 27 27 27 26 26 26 26 26 26 26 26 26 26 26 26 26 26
5 5 5 4 4 4 5 5 5 6 7 7 7 7 5 5 5 5 4 4 5 6 7 7 8 8 8 9 8 7 5 4 4 4 5 7 8 7 4 4 5 6 7 6 6 6 6 7 7 9 13 18 22 24 25 26 26 27 27 27 27 27 27 27 27 27 27 27 27 27 27 27 26 26 26 26 26 26 26 26 26 26 26 26 26 26
5 5 4 4 4 4 4 5 5 5 5 5 5 5 4 4 4 5 5 5 6 7 7 8 8 8 8 8 7 6 5 3 3 3 4 6 7 7 4 4 6 8 8 7 6 6 7 8 8 8 10 16 20 22 24 25 26 27 27 27 27 27 27 27 27 27 27 27 27 27 27 27 27 27 26 26 26 26 26 26 26 26 26 26 26 26
4 5 5 5 6 7 7 8 8 7 6 5 4 4 5 6 7 7 7 7 7 7 7 7 8 8 7 7 6 5 4 3 2 2 3 5 6 7 5 4 6 8 9 7 6 6 8 8 8 8 8 12 17 21 23 24 25 26 27 27 27 27 27 27 27 27 27 27 27 27 27 27 27 27 27 27 26 26 26 26 26 26 26 26 26 26
9 9 9 10 12 14 15 15 15 15 15 12 10 8 8 8 8 7 7 7 7 7 7 7 7 7 6 6 5 5 4 3 2 2 3 4 6 7 6 4 5 7 9 8 7 7 9 9 9 9 8 9 13 17 21 23 24 25 26 26 26 26 27 27 27 27 27 27 27 27 27 27 27 27 27 27 27 26 26 26 26 26 26 26 25 24
13 14 15 15 16 16 17 17 18 19 20 18 16 13 10 8 7 7 7 6 6 6 6 7 7 8 7 6 6 6 5 4 3 3 3 4 6 7 6 4 5 6 9 8 8 8 10 10 10 9 8 8 9 13 18 20 22 23 24 25 26 26 27 27 27 27 27 28 27 27 27 27 27 27 27 27 26 26 26 26 26 26 25 24 22 19
12 12 13 14 14 15 16 17 17 18 19 19 19 17 13 8 6 6 6 5 5 5 6 7 7 7 6 7 7 6 6 5 4 3 3 3 5 6 5 5 5 6 8 8 8 9 10 10 9 9 8 7 8 9 13 16 19 21 22 24 25 26 27 27 27 27 27 27 27 27 27 27 27 27 27 26 26 26 26 26 26 25 23 19 15 11
9 11 12 13 14 15 15 15 15 16 17 17 17 15 10 6 5 5 5 5 5 5 6 7 7 7 7 7 7 7 6 5 4 2 1 2 4 5 4 5 5 6 7 7 7 8 7 7 6 6 6 7 7 7 8 11 14 16 18 21 23 25 26 26 27 27 27 27 27 27 27 27 27 26 26 26 26 26 26 26 25 22 18 14 11 9
7 8 9 10 11 11 11 10 10 12 14 15 14 13 9 5 4 4 5 4 5 6 7 7 7 7 7 7 7 7 5 4 2 1 1 2 4 5 5 6 6 6 5 6 6 6 6 5 4 4 4 7 7 6 6 8 9 10 12 15 18 20 22 24 25 26 26 26 27 27 27 26 26 26 26 26 26 26 26 26 24 19 13 10 9 8
5 5 5 6 6 6 6 6 7 8 10 11 11 10 7 5 4 4 4 4 5 6 6 7 7 7 7 6 6 6 5 3 2 1 1 3 4 5 5 6 6 6 5 4 5 6 7 6 5 4 4 6 7 8 8 8 8 8 8 10 11 14 18 21 22 23 24 25 25 26 26 26 26 26 26 26 26 26 26 26 23 18 12 10 9 8
4 4 4 4 4 4 4 5 5 5 6 6 7 6 6 6 5 5 4 4 5 5 6 7 7 7 7 6 6 6 6 4 4 4 4 4 4 5 5 6 6 6 5 4 5 6 7 6 6 5 6 7 8 8 9 9 8 8 8 8 9 11 15 18 19 19 19 21 22 24 24 25 25 25 26 26 26 26 26 26 24 19 12 10 9 9
4 4 4 4 4 4 4 4 4 4 4 4 4 4 5 5 6 5 5 4 4 5 5 6 7 7 7 8 8 8 7 6 7 7 7 5 5 5 5 6 6 7 6 6 6 6 6 7 7 7 7 8 8 8 8 9 9 8 8 8 8 10 13 13 14 14 14 16 17 19 21 23 23 24 25 25 25 25 25 25 24 21 15 11 9 9
5 5 5 5 4 4 4 4 4 4 4 4 4 4 4 4 5 5 5 5 5 5 5 6 7 7 8 8 8 8 8 7 8 9 8 6 5 5 6 6 7 7 7 6 6 6 7 8 8 8 8 8 8 8 8 8 8 8 7 7 8 8 10 10 10 10 11 12 12 13 15 16 18 20 21 22 23 23 24 24 24 23 21 15 12 10
5 5 5 4 4 4 4 4 4 4 4 4 4 4 5 4 4 5 5 5 5 5 5 6 7 7 8 8 9 9 9 8 8 9 9 7 5 5 6 6 7 7 7 7 7 6 6 9 10 9 9 9 8 8 7 7 7 7 6 7 7 8 8 8 9 9 10 10 10 10 10 10 11 13 15 17 19 21 22 23 24 24 24 21 17 13
4 5 5 4 4 4 5 4 4 4 4 4 4 4 4 5 5 5 5 5 6 6 7 7 7 7 8 8 9 10 11 10 10 10 10 8 6 6 6 6 7 7 8 8 8 7 7 9 10 10 11 10 9 8 7 6 6 6 7 7 8 8 9 8 8 8 9 10 10 10 9 9 9 10 12 16 19 21 22 23 24 24 24 24 22 20
4 4 4 4 4 4 5 5 4 4 5 4 4 5 5 5 5 6 6 6 6 7 8 9 9 9 10 10 10 10 11 10 10 11 11 9 8 7 7 7 8 9 8 8 9 8 8 9 10 10 10 10 9 8 8 8 7 7 7 8 8 9 9 9 8 8 9 10 10 10 10 10 10 10 11 15 18 19 21 22 22 22 23 24 24 23
4 4 5 4 4 4 4 4 5 5 5 5 6 6 6 6 6 7 6 7 7 7 8 8 8 10 13 14 14 13 13 13 14 14 13 11 9 8 8 9 9 9 9 9 9 9 9 9 10 10 10 9 10 10 11 10 10 9 9 9 9 9 9 9 9 9 9 10 11 11 11 11 10 10 10 11 12 12 13 13 15 17 19 20 21 22
4 4 5 5 4 4 4 5 5 5 6 6 6 7 7 7 8 7 7 7 7 8 8 8 8 9 11 13 14 15 15 15 15 14 13 12 10 9 9 10 10 10 9 9 9 9 9 9 9 9 9 10 10 11 10 10 10 10 10 10 10 10 9 8 8 9 9 9 10 11 11 10 10 9 9 9 8 9 9 9 10 11 12 11 13 16
5 5 5 5 5 5 5 5 6 6 6 7 7 7 7 7 7 7 6 6 7 7 8 9 9 9 10 11 12 13 14 12 12 12 11 10 9 9 9 10 10 10 10 9 9 9 9 10 10 11 11 10 10 11 11 11 11 11 11 10 9 8 9 8 8 9 9 9 10 10 10 9 9 9 9 9 9 9 8 8 8 9 10 8 8 9
5 5 5 5 5 5 6 6 6 6 6 6 6 6 6 6 6 6 6 6 6 6 7 8 8 9 9 9 10 10 11 11 11 11 9 10 10 10 10 10 10 10 10 10 9 9 9 10 11 11 11 11 11 12 13 12 13 14 14 12 11 10 11 11 11 10 9 9 9 10 10 10 10 10 10 10 9 9 8 8 9 9 9 8 8 8
6 6 6 5 5 5 5 6 6 6 6 6 6 6 6 6 6 6 6 6 6 6 6 6 7 8 9 9 8 8 8 9 9 10 10 11 11 11 10 10 9 9 9 10 10 10 10 10 11 11 11 11 11 11 12 13 13 13 13 12 12 12 13 12 10 8 8 9 9 9 10 10 10 10 10 10 9 9 9 10 11 12 11 9 9 8
6 6 6 5 5 5 6 6 6 6 6 6 6 6 6 5 6 6 7 7 8 8 7 7 8 8 10 10 9 8 7 7 8 9 10 10 10 10 10 11 10 10 9 9 10 10 11 11 11 11 11 11 11 12 13 13 13 13 12 12 12 10 8 9 8 7 8 9 9 9 9 9 9 9 9 9 9 9 9 11 13 14 13 11 10 9
6 5 5 5 5 5 6 6 6 5 6 6 6 7 6 6 7 7 8 7 8 8 8 7 7 8 9 10 10 9 8 7 6 7 8 9 10 10 10 11 11 11 10 9 9 10 10 11 11 11 11 10 11 12 13 13 13 13 12 12 12 11 10 10 10 10 10 10 10 10 10 10 10 9 10 10 10 9 9 9 10 10 11 10 10 10
5 5 5 5 5 5 6 6 6 6 6 6 7 7 7 7 7 7 7 7 8 8 8 7 7 7 8 9 9 9 9 8 7 6 6 8 11 12 11 10 10 10 10 10 10 10 10 10 11 11 10 10 11 12 13 13 13 13 13 13 13 12 12 12 11 11 11 11 10 10 10 9 9 9 10 10 10 10 10 10 10 10 10 10 10 10
5 5 5 5 5 6 7 7 6 6 6 7 7 7 7 6 6 6 7 7 8 8 8 7 6 7 8 9 9 9 10 10 9 8 6 6 7 7 8 9 9 9 9 9 10 10 10 11 11 11 10 11 11 12 13 13 13 13 13 13 12 12 12 12 11 11 11 11 11 11 11 9 9 9 10 11 11 10 10 10 10 10 10 10 10 10
5 5 5 5 6 6 6 6 6 6 7 7 7 7 7 6 6 6 7 7 7 7 8 7 7 7 9 9 9 9 10 11 11 10 9 8 7 7 7 7 8 9 9 9 10 11 11 11 11 11 11 11 12 13 13 12 12 12 13 12 11 11 11 11 11 11 11 11 11 11 10 8 9 10 11 11 11 10 10 10 10 10 10 10 10 10
6 6 6 6 6 6 6 6 6 7 7 7 7 7 7 7 7 7 7 7 7 7 7 7 7 8 9 9 9 9 10 11 11 11 10 9 9 8 7 7 7 8 8 9 10 11 11 12 12 12 12 11 12 13 13 13 12 12 12 11 11 11 12 12 12 11 11 12 12 12 9 8 9 10 11 11 11 10 10 10 10 10 9 9 9 10
6 6 6 6 6 6 6 6 7 7 7 8 8 8 7 7 8 8 7 7 6 6 6 7 8 9 9 9 9 10 11 11 11 11 10 10 9 8 8 8 7 7 8 8 9 9 10 11 12 13 12 12 12 13 14 13 13 12 12 11 11 11 12 12 12 11 11 12 12 12 10 9 10 10 11 11 12 12 11 11 10 10 9 9 9 9
6 6 6 6 6 6 7 7 7 7 8 8 8 8 8 7 7 6 6 6 6 6 7 8 8 9 9 10 10 10 10 10 10 10 10 9 9 9 9 9 9 9 8 7 7 7 7 7 9 11 13 14 14 14 13 13 13 12 11 11 11 11 11 11 11 11 11 11 11 11 11 10 10 10 10 11 12 13 12 12 11 10 9 9 9 10
6 6 6 6 6 6 7 7 7 8 8 8 9 9 8 8 7 7 6 6 6 7 7 7 8 9 10 10 10 10 10 10 10 11 11 9 9 9 9 9 9 9 9 8 7 7 6 6 6 7 10 13 15 15 12 12 12 11 11 11 10 10 10 11 11 11 11 11 11 10 10 10 9 9 9 10 11 12 12 12 11 10 9 8 9 10
Wind_Direction
263 271 262 210 288 290 280 271 277 289 294 296 297 297 296 297 295 292 291 292 289 285 283 282 280 279 281 287 291 295 299 301 303 303 303 303 302 302 302 301 301 301 301 300 300 299 299 298 297 296 295 294 294 294 294 294 293 293 293 292 292 292 293 293 294 294 294 294 293 292 291 290 289 289 288 287 287 286 285 285 284 284 283 283 282 282
282 284 279 263 272 279 280 273 269 273 285 290 294 296 297 296 295 294 292 287 282 279 280 280 279 277 275 280 289 294 298 301 302 303 303 303 303 302 302 302 302 302 301 301 300 299 299 298 297 296 295 295 295 294 294 294 294 293 293 293 293 293 293 294 294 294 294 293 292 291 290 289 288 287 286 286 285 284 283 282 282 281 281 281 280 280
285 289 280 259 249 259 273 275 267 260 267 278 284 288 292 293 294 294 293 290 285 281 279 278 279 280 277 279 289 295 298 301 302 303 303 303 303 303 303 303 302 302 302 301 300 299 298 298 297 296 296 295 295 295 295 295 294 294 294 294 294 294 294 294 294 293 292 291 290 289 287 287 286 285 284 283 283 282 281 281 281 280 280 280 279 279
262 271 272 264 249 246 251 262 265 264 265 273 278 282 284 286 288 288 288 289 287 285 281 277 277 278 280 281 289 295 299 301 302 303 303 304 304 304 303 303 303 302 301 300 300 299 298 297 297 296 296 296 295 295 295 295 295 295 295 295 295 295 295 294 293 292 291 290 289 287 286 285 284 283 282 282 281 281 280 280 280 280 280 279 279 278
252 253 261 267 266 259 249 253 262 270 275 277 278 280 279 279 283 286 288 287 287 286 284 280 277 276 282 286 292 296 299 301 303 303 304 304 304 303 303 302 302 301 301 300 299 298 298 297 297 296 296 296 296 296 297 297 297 296 296 296 296 295 295 294 293 291 290 289 288 286 285 284 284 283 282 281 281 280 280 280 280 279 279 278 277 277
252 245 249 257 268 273 274 271 278 286 289 287 285 283 282 281 284 288 290 289 288 287 288 287 283 281 283 286 293 297 300 302 303 303 303 303 303 302 302 301 301 300 299 299 298 297 297 297 297 297 297 298 298 298 298 298 298 297 297 297 296 295 294 293 292 291 290 288 287 286 285 284 284 283 282 282 281 281 280 279 279 278 277 276 275 274
265 255 255 262 268 275 284 289 293 298 300 300 298 294 289 287 285 284 282 284 286 289 292 290 289 286 284 285 291 296 299 300 301 301 301 301 300 300 299 299 298 298 297 297 297 297 297 297 297 298 299 299 299 299 299 298 298 297 297 296 295 295 294 293 292 291 289 288 287 286 285 284 284 283 283 282 281 280 279 278 277 277 276 275 274 273
279 276 269 275 282 288 290 293 296 299 298 300 300 299 296 292 287 282 279 280 285 291 297 297 296 293 290 287 290 293 295 297 297 297 297 296 296 295 295 295 295 296 296 296 296 296 297 298 299 300 300 300 300 299 299 298 298 297 297 296 295 295 294 292 291 290 289 288 287 286 285 284 283 283 282 281 280 279 278 277 276 276 275 274 274 273
272 280 279 280 289 296 299 298 297 296 292 288 289 292 296 298 297 294 293 295 295 296 301 303 302 299 295 290 288 288 287 289 289 290 291 290 290 290 291 292 293 294 295 295 296 297 298 299 299 300 300 299 299 298 298 297 297 297 296 296 295 294 293 292 291 290 289 288 287 286 284 283 282 281 280 280 279 278 277 276 276 276 275 275 275 275
263 274 285 287 289 291 295 299 298 292 278 273 273 277 286 298 305 309 309 305 302 301 300 301 301 300 298 292 288 285 286 287 287 288 289 287 288 289 289 290 292 294 295 296 297 298 298 299 299 299 299 298 297 297 297 296 296 296 296 295 294 293 292 291 290 290 288 287 286 284 283 282 281 280 280 279 278 278 277 277 277 276 276 276 276 275
268 275 284 288 287 281 280 290 293 289 275 273 273 275 279 296 311 315 313 310 308 307 302 297 295 296 298 296 292 288 288 286 286 286 286 285 285 286 287 289 291 293 295 296 297 298 298 298 298 298 297 296 296 295 295 295 295 295 294 294 293 292 292 290 289 288 287 285 284 283 282 282 281 281 280 280 279 279 278 278 278 277 277 276 276 276
276 282 286 289 291 291 288 289 287 286 285 294 304 310 309 308 313 312 308 307 308 307 304 298 291 287 288 292 292 291 288 285 283 281 278 278 279 280 283 287 290 293 295 296 296 296 296 296 296 296 295 294 294 294 294 294 294 294 293 293 292 291 290 289 288 286 285 285 284 283 283 282 282 282 281 281 280 280 279 278 278 277 277 276 276 276
276 281 283 290 293 295 297 296 295 297 303 311 314 312 308 309 308 304 298 300 301 302 302 299 294 287 280 280 282 285 285 283 282 280 277 274 272 273 278 284 288 291 293 294 293 293 294 294 294 293 293 292 292 292 292 292 292 292 291 291 290 289 288 288 287 286 286 285 285 285 284 284 283 283 282 282 281 280 279 278 278 277 276 276 276 276
280 283 286 291 294 296 297 298 302 306 312 312 307 302 299 304 305 303 297 295 295 295 295 294 293 292 286 279 275 274 278 282 284 286 286 286 285 286 289 290 291 292 292 291 289 288 289 291 292 291 291 290 290 290 290 290 290 289 289 289 289 288 288 288 288 288 287 287 286 286 285 285 284 283 283 282 281 280 280 279 278 277 277 277 276 276
285 293 296 296 296 297 297 301 305 306 307 304 301 298 299 301 302 301 299 297 296 295 294 292 292 290 288 283 277 274 278 285 291 296 297 293 292 292 296 295 294 293 291 289 287 287 288 289 288 287 286 285 285 285 286 287 287 288 288 289 289 289 289 289 289 289 288 288 287 286 286 285 285 284 283 283 282 281 281 280 279 278 278 277 277 276
289 293 294 293 293 294 299 306 308 306 304 300 298 299 302 302 301 299 296 295 296 296 296 296 296 295 289 281 277 278 287 294 299 301 301 298 297 298 301 299 296 292 289 286 285 286 286 284 281 280 280 281 283 284 285 286 287 289 289 290 290 290 290 290 290 289 289 288 287 287 286 286 285 285 284 283 283 282 281 281 280 279 278 277 277 276
289 289 289 290 292 296 304 306 303 299 297 296 295 295 294 295 295 293 290 290 291 292 291 295 298 300 300 294 288 288 307 310 306 302 300 297 298 301 301 295 292 290 288 284 283 283 284 282 280 279 278 280 282 284 286 287 288 289 290 291 291 291 291 290 290 290 289 289 288 288 287 286 286 285 285 284 283 283 282 281 281 280 279 278 277 277
290 288 290 291 294 299 305 303 299 295 293 293 294 292 288 285 285 285 284 284 284 285 286 285 287 291 298 300 301 310 329 316 309 303 299 296 296 297 295 288 285 284 285 282 281 281 280 279 277 277 278 282 284 285 287 289 289 290 290 291 291 291 291 290 290 290 290 289 289 288 288 287 286 286 285 285 284 284 283 282 282 281 280 279 278 277
292 290 292 293 295 297 298 296 294 294 294 297 298 297 294 287 281 278 277 276 276 278 280 281 281 283 288 292 298 309 325 315 307 302 297 295 295 295 295 288 285 283 282 281 280 280 279 277 276 277 279 282 284 286 287 288 289 289 290 290 290 290 291 290 290 290 290 289 289 288 288 288 287 287 286 286 285 285 284 284 283 282 281 280 279 278
292 290 289 292 293 292 288 286 287 290 295 297 296 293 290 286 281 278 276 276 275 275 276 279 282 285 289 293 299 307 316 311 304 297 293 292 293 294 295 289 285 283 281 279 279 279 277 275 275 277 279 281 283 285 286 287 287 288 289 289 290 290 290 290 290 290 290 289 289 289 288 288 288 287 287 286 285 285 284 284 283 282 281 280 279 278
291 288 286 288 289 288 285 286 289 293 294 292 289 285 282 281 281 280 281 282 281 279 277 279 284 291 298 299 300 302 308 305 300 295 292 291 291 291 291 285 281 280 279 279 278 276 274 272 272 273 276 279 281 283 284 286 287 288 289 289 290 290 290 290 290 290 290 289 289 289 288 288 288 287 286 286 285 284 284 283 283 282 282 281 280 279
289 287 288 286 283 282 286 289 291 289 284 281 279 277 277 280 283 285 287 288 289 289 290 290 293 296 297 294 293 294 298 295 293 292 294 291 288 287 286 281 278 278 279 280 279 276 273 271 271 272 274 278 281 283 284 286 287 288 289 289 290 290 290 290 290 289 289 289 289 288 288 288 287 287 286 286 285 285 285 284 284 284 283 282 282 281
277 280 285 283 279 277 282 283 280 275 270 268 268 269 272 276 280 285 292 296 298 297 296 294 293 291 288 286 286 287 287 282 282 285 289 287 287 288 288 286 283 281 279 281 282 281 278 275 274 274 276 279 281 282 284 285 287 288 288 289 289 289 289 289 289 289 289 288 288 288 287 287 287 287 287 287 287 287 286 286 286 285 284 283 282 281
275 279 283 279 272 268 271 273 273 271 266 264 265 267 269 274 282 289 297 299 298 296 294 291 289 287 283 284 285 286 284 278 274 276 279 282 285 288 292 290 287 284 282 283 285 286 284 280 276 274 275 278 280 282 283 285 286 287 287 288 288 289 289 289 288 288 288 288 288 288 288 288 288 288 288 289 288 288 288 287 286 285 284 283 282 280
286 285 285 283 282 283 287 290 293 296 298 296 296 295 294 296 298 300 300 298 295 293 292 291 290 289 289 291 290 287 284 272 257 255 271 279 282 284 287 289 288 287 287 287 287 286 284 282 279 276 274 276 278 280 282 283 284 285 286 287 287 288 288 288 288 288 288 288 289 289 289 290 290 289 289 289 288 288 287 286 285 284 284 283 282 280
299 297 297 299 300 302 305 308 309 311 312 311 309 308 306 305 304 301 296 294 294 295 296 293 291 290 293 293 291 288 286 272 249 241 262 277 284 286 288 288 287 287 288 289 288 287 285 284 283 281 277 276 277 279 280 281 282 283 284 285 286 287 288 288 289 289 289 290 290 290 290 290 289 289 288 288 287 287 286 286 285 285 284 284 283 282
305 305 306 308 310 312 313 313 312 311 310 308 306 304 303 304 301 296 292 294 299 301 299 295 293 293 294 291 288 287 289 285 271 255 257 275 282 285 288 288 288 288 289 289 289 288 287 287 286 284 281 276 275 275 277 279 281 282 284 285 287 288 289 289 290 290 290 290 290 289 289 289 288 288 287 287 287 287 287 287 287 286 286 286 284 282
313 314 316 316 316 315 314 312 311 309 306 304 303 302 302 301 297 293 291 299 304 303 295 292 292 292 293 290 288 288 290 288 279 265 255 268 275 280 285 289 290 290 292 292 290 288 286 284 283 282 279 275 272 272 274 278 281 283 285 286 288 289 289 289 289 290 289 289 289 289 289 288 288 288 288 288 288 288 288 288 288 288 287 287 285 282
322 320 318 316 315 314 313 311 308 305 302 301 301 302 303 300 293 290 293 302 302 296 288 285 285 286 287 289 289 289 287 282 273 258 233 262 272 278 287 291 292 293 296 295 293 288 281 276 274 274 275 276 275 274 276 280 283 284 286 286 287 287 287 288 288 288 289 289 289 289 289 289 289 289 289 289 289 289 289 289 289 288 288 285 282 279
321 317 314 311 309 308 307 303 299 296 295 297 299 301 302 297 288 285 287 289 286 282 280 280 281 282 286 290 291 290 285 276 258 207 164 271 279 283 290 292 292 293 298 300 298 294 287 279 272 271 277 284 285 285 284 284 283 283 284 284 284 285 285 286 287 288 288 289 289 290 290 290 290 290 289 289 289 289 289 289 289 288 286 283 280 276
308 305 302 299 298 296 292 286 284 286 289 292 295 296 294 286 275 269 269 270 270 271 274 276 278 281 284 289 291 290 287 283 277 268 287 285 283 285 292 292 291 291 294 296 298 299 299 295 291 287 289 291 290 289 286 285 283 281 280 281 281 282 283 285 286 288 289 289 290 290 290 290 290 290 289 289 289 289 288 288 288 287 285 282 278 275
297 296 292 290 288 285 283 280 279 279 280 282 282 280 276 272 268 265 262 262 264 267 271 274 277 279 281 280 280 281 283 287 295 300 297 287 282 283 287 287 288 289 289 283 284 288 295 299 301 301 298 293 290 287 286 284 283 282 281 281 280 281 283 285 287 288 288 289 289 289 289 289 289 289 289 288 288 288 287 287 287 286 284 281 278 275
300 299 296 294 291 288 284 281 278 275 271 268 264 262 263 266 268 268 267 264 264 267 271 275 278 280 279 276 274 274 275 281 288 293 293 287 283 283 286 286 288 289 290 283 278 276 280 287 294 298 296 291 288 286 286 285 284 282 281 281 281 281 284 285 285 286 286 287 287 288 288 288 288 287 287 287 286 286 285 285 285 284 282 279 276 273
306 303 300 296 292 287 282 277 273 271 270 271 274 275 275 274 276 276 275 271 268 267 268 271 274 277 279 277 275 274 274 277 283 288 291 287 283 284 287 287 288 289 292 287 283 279 276 280 286 292 293 291 288 286 286 286 285 282 279 277 278 280 282 283 283 282 282 283 283 284 284 285 285 284 284 284 283 283 283 282 282 281 279 276 272 269
306 302 298 293 288 284 280 276 274 276 281 286 291 294 294 290 286 282 279 275 271 267 263 263 265 268 272 274 276 277 277 279 285 289 290 286 283 284 287 285 286 288 290 287 285 284 281 282 284 288 292 293 291 287 284 283 282 281 277 275 275 277 279 280 280 280 281 280 279 278 278 278 278 279 279 279 279 279 279 279 279 279 278 276 274 271
304 300 295 290 289 290 293 296 298 299 301 300 297 294 292 289 287 283 280 276 273 270 267 264 262 261 262 265 269 273 277 281 285 287 286 282 281 282 283 282 283 285 285 283 282 281 281 283 285 287 288 290 291 290 287 285 283 282 281 279 278 278 277 277 277 277 278 277 276 275 274 273 272 272 272 274 276 277 278 278 279 278 278 277 276 275
297 295 293 291 295 301 307 311 313 312 309 305 300 296 293 290 286 283 280 275 272 270 270 269 266 263 261 261 263 266 272 278 281 281 279 277 276 275 275 277 278 278 276 277 279 281 281 284 285 286 285 284 286 289 293 295 293 290 285 284 283 281 279 277 274 273 273 273 272 272 271 270 270 269 270 273 275 277 278 278 278 278 278 277 276 275
297 298 300 302 305 309 312 312 312 310 308 305 303 300 297 292 287 283 279 275 271 269 269 269 268 267 264 265 265 266 269 273 274 275 273 270 268 266 267 272 273 272 269 271 274 277 279 281 284 285 285 282 282 285 290 295 295 292 289 287 284 281 279 277 274 271 270 270 271 272 272 272 272 272 272 273 275 275 276 275 274 274 275 274 274 273
297 302 306 310 313 314 314 311 309 307 304 302 299 297 295 291 287 282 278 275 272 269 268 269 270 269 267 266 266 266 268 269 269 269 267 264 261 261 263 268 270 270 268 267 268 270 272 274 277 280 283 285 286 287 288 289 289 290 292 290 286 280 276 275 274 273 272 273 274 274 274 273 272 272 271 271 270 269 268 268 268 268 268 269 270 271
305 307 308 311 312 312 308 305 303 301 300 297 295 294 293 292 289 285 278 276 275 274 272 270 271 271 270 269 268 268 268 268 267 266 264 260 256 255 258 262 266 269 270 268 266 265 266 268 271 274 276 280 284 286 288 287 287 288 292 292 289 285 282 281 279 277 275 273 273 273 273 272 270 268 266 265 264 263 262 263 264 264 263 262 263 266
311 309 307 308 307 304 299 298 297 295 294 294 295 295 294 294 293 292 288 284 282 280 279 277 277 276 275 272 271 270 270 269 267 265 262 257 253 252 254 257 261 265 268 268 266 264 263 266 269 272 273 275 278 281 282 283 285 287 288 287 285 285 287 284 281 278 275 272 270 269 270 271 270 268 266 265 263 260 258 260 262 263 262 257 255 256
308 306 305 304 301 299 296 294 294 293 293 294 294 294 293 294 294 295 296 295 293 291 289 289 289 289 289 285 281 275 271 269 266 263 261 256 253 251 251 253 256 260 263 266 266 265 262 264 266 269 271 274 276 278 280 281 282 283 282 281 283 285 286 282 278 275 274 273 271 270 270 271 271 270 269 267 265 262 259 257 258 260 260 257 252 250
303 300 299 297 296 294 294 294 295 296 297 296 293 291 289 290 291 293 294 294 294 295 295 295 294 295 296 296 294 290 280 268 261 258 257 254 251 249 249 250 252 254 257 262 265 266 264 262 263 265 267 270 272 274 277 280 282 281 278 278 282 285 287 283 282 280 277 275 275 274 272 272 271 271 270 268 266 264 261 260 260 259 258 257 254 250
296 294 294 293 294 295 298 298 298 297 296 293 291 289 288 288 288 289 290 291 292 293 295 296 295 295 293 294 296 297 295 285 272 262 258 256 253 251 252 251 251 251 251 255 260 265 268 266 264 264 266 268 269 271 273 277 279 280 279 278 277 275 273 279 285 287 284 279 275 273 271 271 272 272 272 270 268 266 263 261 259 257 254 252 250 249
291 292 294 296 298 301 301 299 298 296 294 291 289 289 289 288 288 289 289 289 290 292 294 296 297 296 293 295 297 300 301 300 295 285 272 264 263 262 260 258 256 255 252 251 253 257 264 267 268 269 269 268 267 268 270 274 276 278 278 277 275 273 270 274 278 280 280 278 276 273 271 272 273 273 273 270 268 265 263 261 259 257 253 248 246 246
292 295 298 300 301 300 299 298 297 296 293 290 290 289 290 289 289 288 286 287 289 291 292 293 292 291 291 295 298 301 303 302 301 298 293 282 272 265 262 260 259 258 256 254 252 252 253 259 265 270 274 272 269 267 266 269 272 275 276 277 276 275 274 274 274 274 275 276 276 275 273 273 272 271 270 269 268 266 263 260 258 257 254 250 247 245
298 299 301 301 300 298 297 297 296 295 293 292 291 290 291 291 290 288 286 286 288 290 291 292 289 286 285 289 294 297 299 300 300 301 300 297 292 283 274 267 263 260 258 257 256 255 253 254 257 262 267 270 271 270 269 268 269 271 274 276 277 277 276 275 274 273 273 273 273 273 275 274 272 269 268 268 268 267 264 261 259 256 254 251 249 247
301 302 301 301 299 298 297 297 296 295 294 293 293 292 292 292 293 293 291 291 291 292 293 292 289 286 285 286 288 290 292 293 295 297 299 299 298 294 288 283 277 271 266 263 262 260 259 256 255 255 257 261 266 270 272 271 269 269 271 274 274 274 273 273 273 273 272 271 270 270 271 270 270 269 270 271 270 268 266 264 262 258 255 252 250 249
301 300 299 298 297 297 296 297 297 296 295 295 295 295 293 293 294 295 294 294 293 292 291 290 289 289 288 288 288 288 289 289 290 291 293 295 296 297 295 293 290 285 281 275 271 267 265 260 255 250 247 250 256 262 268 269 268 268 269 269 269 269 270 271 272 273 272 271 269 267 264 263 264 265 269 270 270 270 269 268 266 263 258 253 251 250
297 294 294 294 294 295 295 296 297 296 295 295 296 296 296 296 296 294 292 291 290 288 287 286 287 288 288 288 288 289 288 288 288 289 290 292 295 297 297 296 296 294 292 288 284 279 276 270 259 250 243 243 246 252 260 264 266 267 267 265 265 266 268 270 271 271 271 271 269 267 263 262 261 262 263 266 268 270 271 270 268 265 261 256 253 252
295 293 292 291 292 292 294 295 295 295 294 294 295 296 297 298 298 296 293 292 290 288 286 285 284 284 285 286 287 287 287 287 288 289 289 292 295 296 296 296 296 296 295 294 293 292 289 287 280 269 255 248 246 247 253 259 264 267 267 265 264 265 267 269 270 271 271 271 270 269 266 264 262 260 259 262 267 270 272 271 270 267 264 261 258 256